Time,TemperatureF,DewpointF,PressureIn,WindDirection,WindDirectionDegrees,WindSpeedMPH,WindSpeedGustMPH,Humidity,HourlyPrecipIn,Conditions,Clouds,dailyrainin,SoftwareType,DateUTC
2013-02-03 00:07:00,19.0,13.0,30.54,NE,43,5.0,5.0,76,0.00,,,0.05,weatherlink.com 1.10,2013-02-03 07:07:00,
2013-02-03 00:22:00,18.4,12.0,30.55,NE,44,4.0,5.0,76,0.00,,,0.05,weatherlink.com 1.10,2013-02-03 07:22:00,
2013-02-03 00:37:00,18.4,12.0,30.55,NE,44,2.0,5.0,77,0.00,,,0.00,weatherlink.com 1.10,2013-02-03 07:37:00,
2013-02-03 00:52:00,18.6,13.0,30.55,NE,44,2.0,4.0,77,0.00,,,0.00,weatherlink.com 1.10,2013-02-03 07:52:00,
2013-02-03 01:07:00,19.5,13.0,30.54,NE,44,0.0,0.0,76,0.00,,,0.00,weatherlink.com 1.10,2013-02-03 08:07:00,
2013-02-03 01:22:00,18.6,12.0,30.53,NE,44,0.0,0.0,75,0.00,,,0.00,weatherlink.com 1.10,2013-02-03 08:22:00,
2013-02-03 01:37:00,18.5,12.0,30.53,NE,44,4.0,4.0,75,0.00,,,0.00,weatherlink.com 1.10,2013-02-03 08:37:00,
2013-02-03 01:52:00,18.0,12.0,30.53,NE,44,2.0,5.0,76,0.00,,,0.00,weatherlink.com 1.10,2013-02-03 08:52:00,
2013-02-03 02:08:00,17.0,11.0,30.53,NE,44,0.0,0.0,77,0.00,,,0.00,weatherlink.com 1.10,2013-02-03 09:08:00,
2013-02-03 02:23:00,18.6,13.0,30.52,NE,44,0.0,0.0,77,0.00,,,0.00,weatherlink.com 1.10,2013-02-03 09:23:00,
2013-02-03 02:38:00,18.2,12.0,30.52,NE,44,0.0,0.0,76,0.00,,,0.00,weatherlink.com 1.10,2013-02-03 09:38:00,
2013-02-03 02:53:00,18.2,12.0,30.52,NE,44,0.0,0.0,76,0.00,,,0.00,weatherlink.com 1.10,2013-02-03 09:53:00,
2013-02-03 03:08:00,19.3,13.0,30.52,NE,44,0.0,0.0,77,0.00,,,0.00,weatherlink.com 1.10,2013-02-03 10:08:00,
2013-02-03 03:23:00,18.9,12.0,30.51,NE,44,3.0,3.0,74,0.00,,,0.00,weatherlink.com 1.10,2013-02-03 10:23:00,
2013-02-03 03:38:00,17.9,12.0,30.50,NE,44,2.0,2.0,77,0.00,,,0.00,weatherlink.com 1.10,2013-02-03 10:38:00,
2013-02-03 03:53:00,17.6,11.0,30.50,NE,44,3.0,3.0,76,0.00,,,0.00,weatherlink.com 1.10,2013-02-03 10:53:00,
2013-02-03 04:08:00,17.6,12.0,30.49,NE,44,0.0,2.0,77,0.00,,,0.00,weatherlink.com 1.10,2013-02-03 11:08:00,
2013-02-03 04:23:00,16.7,11.0,30.49,NE,44,3.0,5.0,77,0.00,,,0.00,weatherlink.com 1.10,2013-02-03 11:23:00,
2013-02-03 04:38:00,16.8,11.0,30.49,NE,45,3.0,4.0,78,0.00,,,0.00,weatherlink.com 1.10,2013-02-03 11:38:00,
2013-02-03 04:53:00,16.9,11.0,30.48,NE,45,3.0,4.0,77,0.00,,,0.00,weatherlink.com 1.10,2013-02-03 11:53:00,
2013-02-03 05:08:00,16.4,10.0,30.48,NE,45,0.0,2.0,77,0.00,,,0.00,weatherlink.com 1.10,2013-02-03 12:08:00,
2013-02-03 05:23:00,17.7,12.0,30.48,NE,45,0.0,0.0,78,0.00,,,0.00,weatherlink.com 1.10,2013-02-03 12:23:00,
2013-02-03 05:38:00,16.9,11.0,30.47,NE,45,0.0,0.0,76,0.00,,,0.00,weatherlink.com 1.10,2013-02-03 12:38:00,
2013-02-03 05:53:00,17.0,11.0,30.47,NE,45,0.0,0.0,77,0.00,,,0.00,weatherlink.com 1.10,2013-02-03 12:53:00,
2013-02-03 06:08:00,16.7,10.0,30.46,NE,45,0.0,0.0,76,0.00,,,0.00,weatherlink.com 1.10,2013-02-03 13:08:00,
2013-02-03 06:23:00,16.2,11.0,30.46,NE,45,3.0,4.0,78,0.00,,,0.00,weatherlink.com 1.10,2013-02-03 13:23:00,
2013-02-03 06:38:00,16.9,11.0,30.46,NE,45,0.0,3.0,78,0.00,,,0.00,weatherlink.com 1.10,2013-02-03 13:38:00,
2013-02-03 06:53:00,17.8,12.0,30.45,NE,45,0.0,0.0,77,0.00,,,0.00,weatherlink.com 1.10,2013-02-03 13:53:00,
2013-02-03 07:08:00,17.9,11.0,30.45,NE,45,0.0,0.0,75,0.00,,,0.00,weatherlink.com 1.10,2013-02-03 14:08:00,
2013-02-03 07:23:00,17.5,11.0,30.45,NE,45,0.0,0.0,77,0.00,,,0.00,weatherlink.com 1.10,2013-02-03 14:23:00,
2013-02-03 07:38:00,18.0,12.0,30.45,NE,45,0.0,0.0,76,0.00,,,0.00,weatherlink.com 1.10,2013-02-03 14:38:00,
2013-02-03 07:53:00,17.2,11.0,30.44,NE,45,4.0,5.0,75,0.00,,,0.00,weatherlink.com 1.10,2013-02-03 14:53:00,
2013-02-03 08:08:00,17.6,12.0,30.43,NE,45,2.0,4.0,77,0.00,,,0.00,weatherlink.com 1.10,2013-02-03 15:08:00,
2013-02-03 08:23:00,18.9,12.0,30.43,NE,45,0.0,0.0,74,0.00,,,0.00,weatherlink.com 1.10,2013-02-03 15:23:00,
2013-02-03 08:38:00,19.9,12.0,30.43,NE,45,0.0,0.0,72,0.00,,,0.00,weatherlink.com 1.10,2013-02-03 15:38:00,
2013-02-03 08:53:00,21.4,13.0,30.43,NE,45,0.0,0.0,69,0.00,,,0.00,weatherlink.com 1.10,2013-02-03 15:53:00,
2013-02-03 09:08:00,23.4,14.0,30.41,NE,45,0.0,0.0,67,0.00,,,0.00,weatherlink.com 1.10,2013-02-03 16:08:00,
2013-02-03 09:23:00,24.2,14.0,30.40,NE,45,0.0,0.0,66,0.00,,,0.00,weatherlink.com 1.10,2013-02-03 16:23:00,
2013-02-03 09:38:00,25.7,15.0,30.39,NE,45,0.0,0.0,64,0.00,,,0.00,weatherlink.com 1.10,2013-02-03 16:38:00,
2013-02-03 09:53:00,25.9,15.0,30.39,NE,45,0.0,0.0,63,0.00,,,0.00,weatherlink.com 1.10,2013-02-03 16:53:00,
2013-02-03 10:08:00,27.2,16.0,30.38,NE,45,0.0,0.0,64,0.00,,,0.00,weatherlink.com 1.10,2013-02-03 17:08:00,
2013-02-03 10:23:00,28.4,16.0,30.37,NE,45,0.0,0.0,60,0.00,,,0.00,weatherlink.com 1.10,2013-02-03 17:23:00,
2013-02-03 10:39:00,28.1,15.0,30.37,NE,45,0.0,0.0,59,0.00,,,0.00,weatherlink.com 1.10,2013-02-03 17:39:00,
2013-02-03 10:54:00,29.0,16.0,30.36,NE,45,0.0,0.0,58,0.00,,,0.00,weatherlink.com 1.10,2013-02-03 17:54:00,
2013-02-03 11:09:00,29.2,16.0,30.35,NE,45,0.0,0.0,58,0.00,,,0.00,weatherlink.com 1.10,2013-02-03 18:09:00,
2013-02-03 11:24:00,29.8,16.0,30.34,NE,45,0.0,1.0,57,0.00,,,0.00,weatherlink.com 1.10,2013-02-03 18:24:00,
2013-02-03 11:39:00,30.5,17.0,30.33,NE,45,0.0,0.0,57,0.00,,,0.00,weatherlink.com 1.10,2013-02-03 18:39:00,
2013-02-03 11:54:00,31.7,17.0,30.31,NE,45,0.0,0.0,55,0.00,,,0.00,weatherlink.com 1.10,2013-02-03 18:54:00,
2013-02-03 12:09:00,31.6,17.0,30.30,NE,45,0.0,1.0,56,0.00,,,0.00,weatherlink.com 1.10,2013-02-03 19:09:00,
2013-02-03 12:24:00,33.4,19.0,30.29,NE,37,2.0,3.0,55,0.00,,,0.00,weatherlink.com 1.10,2013-02-03 19:24:00,
2013-02-03 12:39:00,33.2,18.0,30.28,NE,37,0.0,3.0,54,0.00,,,0.00,weatherlink.com 1.10,2013-02-03 19:39:00,
2013-02-03 12:54:00,32.4,18.0,30.27,NE,35,0.0,3.0,55,0.00,,,0.00,weatherlink.com 1.10,2013-02-03 19:54:00,
2013-02-03 13:09:00,32.9,17.0,30.27,NNE,23,0.0,3.0,52,0.00,,,0.00,weatherlink.com 1.10,2013-02-03 20:09:00,
2013-02-03 13:24:00,33.4,16.0,30.26,WNW,284,1.0,7.0,49,0.00,,,0.00,weatherlink.com 1.10,2013-02-03 20:24:00,
2013-02-03 13:39:00,35.5,17.0,30.25,WNW,294,0.0,4.0,48,0.00,,,0.00,weatherlink.com 1.10,2013-02-03 20:39:00,
2013-02-03 13:54:00,34.8,16.0,30.25,NNW,336,0.0,4.0,47,0.00,,,0.00,weatherlink.com 1.10,2013-02-03 20:54:00,
2013-02-03 14:09:00,34.4,16.0,30.25,WNW,288,0.0,5.0,48,0.00,,,0.00,weatherlink.com 1.10,2013-02-03 21:09:00,
2013-02-03 14:24:00,34.4,16.0,30.25,WNW,298,4.0,7.0,47,0.00,,,0.00,weatherlink.com 1.10,2013-02-03 21:24:00,
2013-02-03 14:39:00,34.6,15.0,30.24,NW,319,6.0,7.0,45,0.00,,,0.00,weatherlink.com 1.10,2013-02-03 21:39:00,
2013-02-03 14:54:00,34.3,15.0,30.25,WNW,300,4.0,12.0,45,0.00,,,0.00,weatherlink.com 1.10,2013-02-03 21:54:00,
2013-02-03 15:09:00,33.7,13.0,30.25,NW,311,9.0,20.0,43,0.01,,,0.01,weatherlink.com 1.10,2013-02-03 22:09:00,
2013-02-03 15:24:00,32.9,13.0,30.25,NNW,328,2.0,12.0,44,0.01,,,0.01,weatherlink.com 1.10,2013-02-03 22:24:00,
2013-02-03 15:39:00,32.4,14.0,30.26,NW,310,0.0,12.0,46,0.01,,,0.01,weatherlink.com 1.10,2013-02-03 22:39:00,
2013-02-03 15:54:00,32.4,14.0,30.26,NW,311,2.0,13.0,47,0.01,,,0.01,weatherlink.com 1.10,2013-02-03 22:54:00,
2013-02-03 16:09:00,32.2,14.0,30.26,NW,313,11.0,11.0,48,0.00,,,0.01,weatherlink.com 1.10,2013-02-03 23:09:00,
2013-02-03 16:24:00,32.2,15.0,30.25,NW,316,1.0,13.0,50,0.00,,,0.01,weatherlink.com 1.10,2013-02-03 23:24:00,
2013-02-03 16:39:00,32.0,16.0,30.25,WNW,300,5.0,14.0,51,0.00,,,0.01,weatherlink.com 1.10,2013-02-03 23:39:00,
2013-02-03 16:54:00,31.2,15.0,30.25,NW,310,9.0,11.0,52,0.00,,,0.01,weatherlink.com 1.10,2013-02-03 23:54:00,
2013-02-03 17:09:00,30.5,15.0,30.25,WNW,300,0.0,10.0,53,0.00,,,0.01,weatherlink.com 1.10,2013-02-04 00:09:00,
2013-02-03 17:24:00,30.2,15.0,30.25,WNW,300,0.0,0.0,54,0.00,,,0.01,weatherlink.com 1.10,2013-02-04 00:24:00,
2013-02-03 17:39:00,29.3,15.0,30.26,WNW,301,0.0,0.0,55,0.00,,,0.01,weatherlink.com 1.10,2013-02-04 00:39:00,
2013-02-03 17:54:00,28.9,15.0,30.26,WNW,301,1.0,3.0,56,0.00,,,0.01,weatherlink.com 1.10,2013-02-04 00:54:00,
2013-02-03 18:09:00,28.4,14.0,30.26,NW,307,0.0,10.0,56,0.00,,,0.01,weatherlink.com 1.10,2013-02-04 01:09:00,
2013-02-03 18:24:00,27.2,14.0,30.26,NW,307,0.0,0.0,58,0.00,,,0.01,weatherlink.com 1.10,2013-02-04 01:24:00,
2013-02-03 18:39:00,27.3,15.0,30.27,NW,307,1.0,3.0,60,0.00,,,0.01,weatherlink.com 1.10,2013-02-04 01:39:00,
2013-02-03 18:54:00,27.1,16.0,30.27,NW,307,0.0,0.0,62,0.00,,,0.01,weatherlink.com 1.10,2013-02-04 01:54:00,
2013-02-03 19:09:00,26.5,16.0,30.27,NW,307,0.0,1.0,64,0.00,,,0.01,weatherlink.com 1.10,2013-02-04 02:09:00,
2013-02-03 19:24:00,25.8,15.0,30.27,NNE,16,0.0,3.0,65,0.00,,,0.01,weatherlink.com 1.10,2013-02-04 02:24:00,
2013-02-03 19:39:00,26.3,16.0,30.27,NNE,16,0.0,0.0,65,0.00,,,0.01,weatherlink.com 1.10,2013-02-04 02:39:00,
2013-02-03 19:54:00,25.0,15.0,30.29,NNE,15,0.0,0.0,67,0.00,,,0.01,weatherlink.com 1.10,2013-02-04 02:54:00,
2013-02-03 20:09:00,24.2,14.0,30.30,NNE,17,1.0,2.0,66,0.00,,,0.01,weatherlink.com 1.10,2013-02-04 03:09:00,
2013-02-03 20:24:00,24.3,15.0,30.29,NNE,17,0.0,0.0,68,0.00,,,0.01,weatherlink.com 1.10,2013-02-04 03:24:00,
2013-02-03 20:39:00,23.8,15.0,30.29,NE,51,1.0,3.0,69,0.00,,,0.01,weatherlink.com 1.10,2013-02-04 03:39:00,
2013-02-03 20:54:00,23.8,15.0,30.30,East,81,0.0,0.0,68,0.00,,,0.01,weatherlink.com 1.10,2013-02-04 03:54:00,
2013-02-03 21:09:00,23.8,15.0,30.30,East,83,0.0,2.0,69,0.00,,,0.01,weatherlink.com 1.10,2013-02-04 04:09:00,
2013-02-03 21:24:00,22.2,14.0,30.29,East,83,0.0,2.0,72,0.00,,,0.01,weatherlink.com 1.10,2013-02-04 04:24:00,
2013-02-03 21:39:00,23.3,15.0,30.30,East,84,0.0,2.0,70,0.00,,,0.01,weatherlink.com 1.10,2013-02-04 04:39:00,
2013-02-03 21:54:00,19.5,12.0,30.30,East,84,1.0,3.0,74,0.00,,,0.01,weatherlink.com 1.10,2013-02-04 04:54:00,
2013-02-03 22:09:00,20.7,13.0,30.30,East,84,0.0,0.0,73,0.00,,,0.01,weatherlink.com 1.10,2013-02-04 05:09:00,
2013-02-03 22:24:00,19.5,13.0,30.30,East,84,1.0,3.0,76,0.00,,,0.01,weatherlink.com 1.10,2013-02-04 05:24:00,
2013-02-03 22:39:00,18.6,13.0,30.30,East,84,2.0,3.0,78,0.00,,,0.01,weatherlink.com 1.10,2013-02-04 05:39:00,
2013-02-03 22:54:00,19.7,15.0,30.29,East,84,1.0,2.0,81,0.00,,,0.01,weatherlink.com 1.10,2013-02-04 05:54:00,
2013-02-03 23:09:00,19.7,15.0,30.28,East,84,1.0,2.0,80,0.00,,,0.01,weatherlink.com 1.10,2013-02-04 06:09:00,
2013-02-03 23:24:00,18.8,13.0,30.30,East,83,1.0,2.0,79,0.00,,,0.01,weatherlink.com 1.10,2013-02-04 06:24:00,
2013-02-03 23:39:00,16.7,11.0,30.31,ENE,69,1.0,3.0,79,0.00,,,0.01,weatherlink.com 1.10,2013-02-04 06:39:00,
2013-02-03 23:54:00,16.8,13.0,30.32,ENE,62,1.0,1.0,83,0.00,,,0.01,weatherlink.com 1.10,2013-02-04 06:54:00,